Flag for Canada Weather past 2 weeks in Sarnia, Ontario, Canada

Now
43 °F

Sunny.


Feels Like: 35 °F
Forecast: 32 / 47 °F
Wind: 16 mph from Northwest

Location: Sarnia Airport

Current Time: Mar 30, 2015 at 10:59:06 AM

Latest Report: Mar 30, 2015 at 10:00 AM


Visibility: 9 mi

Pressure: 29.85 "Hg

Humidity: 57%

Dew point: 28 °F

Location of SarniaLocation

Historic Weather in Sarnia — Graph

°F

Sarnia temperature yesterday

Maximum temperature yesterday: 39 °F (at 1:00 PM)
Minimum temperature yesterday: 19 °F (at 12:00 AM)
Average temperature yesterday: 30 °F

Past Weeks' High & Low Weather Summary

 TemperatureHumidityPressure
High57 °F (Mar 16, 2:00 PM)93% (Mar 16, 5:00 AM)30.40 "Hg (Mar 16, 5:00 AM)
Low14 °F (Mar 28, 6:00 AM)34% (Mar 20, 1:00 PM)29.68 "Hg (Mar 30, 1:00 AM)
Average31 °F70%30.12 "Hg
* Reported Mar 15 9:00 AM — Mar 30 9:00 AM, Sarnia, Weather by CustomWeather, © 2015

Note: Actual official high and low records may vary slightly from our data, if they occured in-between our weather recording intervals... More about our weather records

Advertising

Sarnia weather history for previous 24 hours

 ConditionsComfort  
Time TempWeatherWind HumidityBarometerVisibility
9:00 AM
Mon, Mar 30
41 °FPassing clouds.18 mph61%29.84 "Hg9 mi
8:00 AM39 °FClear.14 mph65%29.82 "Hg9 mi
7:00 AM39 °FPartly cloudy.14 mph70%29.80 "Hg9 mi
6:00 AM39 °FMostly cloudy.10 mph70%29.77 "Hg9 mi
5:00 AM39 °FPassing clouds.10 mph70%29.75 "Hg9 mi
4:00 AM39 °FPartly cloudy.14 mph75%29.73 "Hg9 mi
3:00 AM41 °FMostly cloudy.17 mph70%29.70 "Hg9 mi
2:00 AM39 °FLight rain. Mostly cloudy.16 mph81%29.68 "Hg9 mi
1:00 AM41 °FMostly cloudy.18 mph70%29.68 "Hg9 mi
12:00 AM39 °FOvercast.17 mph65%29.70 "Hg9 mi
11:02 PM
Sun, Mar 29
39 °FOvercast.18 mph61%29.73 "Hg9 mi
10:00 PM39 °FMostly cloudy.23 mph61%29.74 "Hg9 mi
9:00 PM37 °FOvercast.18 mph65%29.80 "Hg9 mi
8:00 PM36 °FLight rain. Overcast.20 mph81%29.84 "Hg9 mi
7:00 PM34 °FLight rain. Mostly cloudy.24 mph81%29.86 "Hg9 mi
6:00 PM37 °FMostly cloudy.21 mph52%29.89 "Hg9 mi
5:00 PM37 °FPartly sunny.23 mph52%29.89 "Hg9 mi
4:00 PM37 °FBroken clouds.26 mph52%29.95 "Hg9 mi
3:00 PM37 °FBroken clouds.26 mph48%30.02 "Hg9 mi
2:00 PM37 °FPartly sunny.28 mph48%30.08 "Hg9 mi
1:00 PM39 °FSunny.21 mph42%30.15 "Hg9 mi
12:00 PM36 °FSunny.26 mph48%30.19 "Hg9 mi
11:00 AM36 °FSunny.17 mph48%30.23 "Hg9 mi
10:00 AM32 °FSunny.14 mph64%30.25 "Hg9 mi
Weather by CustomWeather, © 2015

See weather overviewHow to use our weather pages